sat.trackr.live / text

‹ back to catalog

STARLINK-3107

NORAD 49171 · 2021-082AT

PAYLOAD ACTIVE UNKNOWN

§ Identity

Operator
Country
US
Launch date
2021-09-14
Launch site
AFWTR
Launch vehicle
Mass (kg)
RCS (m²)

Purposes: comms

External: N2YO · Heavens-Above · Gunter

§ Orbital elements

Epoch: 2026-05-25T02:49:36.698304Z

Period
95.14 min
Inclination
69.9912°
Eccentricity
0.0004310
Mean motion
15.13573885 rev/d
Perigee alt
522.3 km
Apogee alt
528.3 km
Semi-major
6,903.4 km
B*
1.1554e-3
RAAN
90.9908°
Arg perigee
194.1978°
Mean anomaly
165.9068°
Rev number
25,885

§ Raw data

STARLINK-31071 49171U 21082AT  26145.11778586  .00020728  00000+0  11554-2 0  99922 49171  69.9912  90.9908 0004310 194.1978 165.9068 15.13573885258851

JSON: /api/v1/satellites/49171 · /tle

For live sub-satellite position, see the globe view (requires WebGL).

§ Visibility from observer

Set your observer location to see the next 7 days of passes ≥ 10°. The values pass through the URL so the page stays shareable.

No JS? Fill the form by hand. The geolocation button needs JavaScript.